CZ-6A DEB, 54473

Orbit data source: Space-Track

CZ-6A DEB, 54473 is space debris in SSO originally from a launch on Fri, 11 Nov 2022 UTC launched from the Taiyaun Space Center, China (TSC). Debris objects in space refer to the collection of defunct objects orbiting the Earth. Examples of debris include non-operational satellites, rocket bodies, and fragments generated from explosions, collisions, or faulty payload assembly.

Loading next visibility...
Identifier
54473, 2022-151GZ
Orbit
SSO
Country
Flag of CNCN / PRC
Related business
Manufacturer
SAST
Mission
Spacecraft
Bus & Motor
Unknown
Mass
Unknown
Launch date (UTC)
2022-11-11 (3 years ago)
Launch vehicle
Unknown
Launch site
Taiyaun Space Center, China (TSC)
Object type
Payload
Rocket body
Debris
Shape & HBR
Unknown shape, 0.7 m
Radar Cross Section
Medium (>0.1 m² and <1 m²)

Expand to show TLE details & history
Last TLE update: 13 hours ago

TLE from 13 hours ago
0 CZ-6A DEB
1 54473U 22151GZ  26130.02873544  .00000220  00000-0  12820-3 0  9999
2 54473  98.8413 156.4208 0031337 320.6415  39.2483 14.18260280180383
Epoch: 2026-05-10T00:41Z
TLE epoch observation values (Epoch: 2026-05-10T00:41:22.742Z)
Latitude
0.00001°
Longitude
-81.76165°
Altitude
816.68 km
Speed
7.454 km/s
True Right ascension
10h 25m 40s
True Declination
0° 00' 00"
Sunlit
Object was in daylight at epoch
Visualization orbit readout
Latitude
Unknown
Longitude
Unknown
Altitude
Unknown
Speed
Unknown
Apparent Right ascension
Unknown
Apparent Declination
Unknown
Sunlit
N/A
Visualization observer readout
Local Sidereal Time
21:27:37
Azimuth
Unknown
Elevation
Unknown
Doppler factor
Unknown
Orbital elements
Apogee altitude
850.993 km
Perigee altitude
805.826 km
Semi-major axis
7,206.547 km
Eccentricity
0.00313
Inclination
98.8413°
RAAN
156.4208°
Arg. of periapsis
320.6415°
True anomaly
39.47618°
Mean anomaly
39.2483°
Eccentric anomaly
39.36217°
Mean motion
3.54774 °/min
Orbital period
101.47 mins
BSTAR
0.0001282
Loading maneuver chart data...
Computing Atmospheric mass density...
Loading historical data...
Loading historical data...
Loading historical data...
Loading historical data...
Loading historical data...
Loading historical data...
Loading historical data...

Documentation

Showing up to 5 results
|